| time (UTC) | temp C | wind direction | speed KPH | gust KPH | rain 1hr cm | rain 24hr cm | rain mn cm | humidity % | barometer mb |
| 20260505230708 | 7 | 9 | 11.3 | 12.9 | 0.00 | 0.00 | 0.00 | 76 | 1009.0 |
| 20260505230205 | 7 | 11 | 12.9 | 12.9 | 0.00 | 0.00 | 0.00 | 76 | 1009.0 |
| 20260505225706 | 7 | 8 | 9.7 | 12.9 | 0.00 | 0.00 | 0.00 | 76 | 1009.0 |
| 20260505225205 | 7 | 14 | 11.3 | 12.9 | 0.00 | 0.00 | 0.00 | 76 | 1009.0 |
| 20260505224705 | 7 | 15 | 12.9 | 12.9 | 0.00 | 0.00 | 0.00 | 76 | 1009.0 |
| 20260505222705 | 6 | 16 | 9.7 | 12.9 | 0.00 | 0.00 | 0.00 | 76 | 1009.1 |
| 20260505222205 | 6 | 14 | 8.0 | 11.3 | 0.00 | 0.00 | 0.00 | 75 | 1009.1 |
| 20260505220205 | 6 | 31 | 8.0 | 9.7 | 0.00 | 0.00 | 0.00 | 71 | 1009.2 |
| 20260505215206 | 7 | 27 | 8.0 | 9.7 | 0.00 | 0.00 | 0.00 | 70 | 1009.3 |
| 20260505214205 | 7 | 22 | 6.4 | 9.7 | 0.00 | 0.00 | 0.00 | 68 | 1009.4 |
| 20260505212704 | 7 | 11 | 12.9 | 12.9 | 0.00 | 0.00 | 0.00 | 67 | 1009.3 |
| 20260505211207 | 7 | 23 | 4.8 | 9.7 | 0.00 | 0.00 | 0.00 | 64 | 1009.4 |
| 20260505205205 | 7 | 14 | 12.9 | 14.5 | 0.00 | 0.00 | 0.00 | 61 | 1009.5 |
| 20260505204704 | 7 | 9 | 12.9 | 12.9 | 0.00 | 0.00 | 0.00 | 61 | 1009.5 |
| 20260505203706 | 7 | 13 | 14.5 | 20.9 | 0.00 | 0.00 | 0.00 | 60 | 1009.5 |
| 20260505202204 | 7 | 26 | 6.4 | 8.0 | 0.00 | 0.00 | 0.00 | 61 | 1009.5 |
| 20260505201704 | 7 | 26 | 4.8 | 9.7 | 0.00 | 0.00 | 0.00 | 60 | 1009.4 |
| 20260505200204 | 8 | 14 | 14.5 | 16.1 | 0.00 | 0.00 | 0.00 | 60 | 1009.5 |
| 20260505193205 | 8 | 12 | 9.7 | 11.3 | 0.00 | 0.00 | 0.00 | 61 | 1009.4 |
| 20260505192204 | 8 | 13 | 8.0 | 9.7 | 0.00 | 0.00 | 0.00 | 61 | 1009.3 |
| 20260505190206 | 10 | 22 | 6.4 | 8.0 | 0.00 | 0.00 | 0.00 | 58 | 1009.1 |
| 20260505185705 | 10 | 23 | 6.4 | 8.0 | 0.00 | 0.00 | 0.00 | 57 | 1009.1 |
| 20260505185205 | 10 | 23 | 4.8 | 4.8 | 0.00 | 0.00 | 0.00 | 56 | 1009.1 |
| 20260505184704 | 10 | 23 | 4.8 | 8.0 | 0.00 | 0.00 | 0.00 | 54 | 1009.1 |
| 20260505184204 | 10 | 21 | 8.0 | 8.0 | 0.00 | 0.00 | 0.00 | 55 | 1009.1 |
| 20260505183204 | 10 | 6 | 4.8 | 8.0 | 0.00 | 0.00 | 0.00 | 57 | 1009.2 |
| 20260505182704 | 10 | 6 | 6.4 | 9.7 | 0.00 | 0.00 | 0.00 | 57 | 1009.2 |
| 20260505182204 | 10 | 359 | 8.0 | 9.7 | 0.00 | 0.00 | 0.00 | 56 | 1009.2 |
| 20260505180704 | 11 | 0 | 9.7 | 11.3 | 0.00 | 0.00 | 0.00 | 54 | 1009.1 |
| 20260505180206 | 11 | 356 | 12.9 | 12.9 | 0.00 | 0.00 | 0.00 | 54 | 1009.1 |
| 20260505175205 | 11 | 352 | 11.3 | 12.9 | 0.00 | 0.00 | 0.00 | 52 | 1009.1 |
| 20260505174704 | 11 | 1 | 14.5 | 14.5 | 0.00 | 0.00 | 0.00 | 53 | 1009.1 |
| 20260505173706 | 11 | 352 | 11.3 | 20.9 | 0.00 | 0.00 | 0.00 | 54 | 1009.1 |
| 20260505173204 | 11 | 345 | 12.9 | 22.5 | 0.00 | 0.00 | 0.00 | 53 | 1009.2 |
| 20260505171706 | 11 | 339 | 8.0 | 20.9 | 0.00 | 0.00 | 0.00 | 51 | 1009.2 |
| 20260505171205 | 11 | 332 | 11.3 | 16.1 | 0.00 | 0.00 | 0.00 | 50 | 1009.2 |
| 20260505170704 | 11 | 0 | 9.7 | 20.9 | 0.00 | 0.00 | 0.00 | 49 | 1009.2 |
| 20260505170204 | 11 | 346 | 12.9 | 22.5 | 0.00 | 0.00 | 0.00 | 50 | 1009.2 |
| 20260505163205 | 12 | 0 | 14.5 | 24.1 | 0.00 | 0.00 | 0.00 | 50 | 1009.2 |
| 20260505153205 | 12 | 331 | 17.7 | 29.0 | 0.00 | 0.00 | 0.00 | 46 | 1009.2 |
| 20260505152204 | 12 | 359 | 20.9 | 29.0 | 0.00 | 0.00 | 0.00 | 44 | 1009.3 |
| 20260505140205 | 13 | 337 | 16.1 | 24.1 | 0.00 | 0.00 | 0.00 | 53 | 1009.4 |
| 20260505124704 | 13 | 353 | 16.1 | 25.7 | 0.00 | 0.00 | 0.00 | 57 | 1009.4 |
| 20260505122205 | 12 | 325 | 16.1 | 25.7 | 0.00 | 0.00 | 0.00 | 57 | 1009.5 |
| 20260505121704 | 13 | 340 | 24.1 | 27.4 | 0.00 | 0.00 | 0.00 | 58 | 1009.5 |
| 20260505115205 | 12 | 339 | 19.3 | 24.1 | 0.00 | 0.00 | 0.00 | 62 | 1009.4 |
| 20260505113705 | 13 | 338 | 11.3 | 20.9 | 0.00 | 0.00 | 0.00 | 64 | 1009.4 |
| 20260505112205 | 12 | 327 | 14.5 | 22.5 | 0.00 | 0.00 | 0.00 | 65 | 1009.5 |
| 20260505111206 | 12 | 336 | 14.5 | 22.5 | 0.00 | 0.00 | 0.00 | 65 | 1009.5 |
| 20260505102205 | 12 | 355 | 16.1 | 24.1 | 0.00 | 0.00 | 0.00 | 65 | 1009.7 |
| 20260505094205 | 12 | 3 | 12.9 | 24.1 | 0.00 | 0.00 | 0.00 | 65 | 1009.7 |
| 20260505093206 | 12 | 309 | 19.3 | 25.7 | 0.00 | 0.00 | 0.00 | 64 | 1009.7 |
| 20260505092704 | 12 | 340 | 16.1 | 27.4 | 0.00 | 0.00 | 0.00 | 65 | 1009.8 |
| 20260505090704 | 12 | 313 | 16.1 | 25.7 | 0.00 | 0.00 | 0.00 | 65 | 1009.7 |
| 20260505084706 | 11 | 338 | 14.5 | 22.5 | 0.00 | 0.00 | 0.00 | 68 | 1009.8 |
| 20260505084204 | 12 | 319 | 17.7 | 27.4 | 0.00 | 0.00 | 0.00 | 66 | 1009.8 |
| 20260505083205 | 12 | 333 | 11.3 | 22.5 | 0.00 | 0.00 | 0.00 | 71 | 1009.8 |
| 20260505082705 | 11 | 330 | 19.3 | 24.1 | 0.00 | 0.00 | 0.00 | 72 | 1009.8 |
| 20260505080206 | 11 | 311 | 16.1 | 25.7 | 0.00 | 0.00 | 0.00 | 70 | 1009.7 |
| 20260505075204 | 11 | 318 | 11.3 | 22.5 | 0.00 | 0.00 | 0.00 | 73 | 1009.6 |
| 20260505074205 | 10 | 344 | 17.7 | 27.4 | 0.00 | 0.00 | 0.00 | 75 | 1009.6 |
| 20260505073705 | 10 | 325 | 14.5 | 24.1 | 0.00 | 0.00 | 0.00 | 75 | 1009.6 |
| 20260505070705 | 10 | 313 | 16.1 | 24.1 | 0.00 | 0.00 | 0.00 | 73 | 1009.5 |
| 20260505070205 | 10 | 310 | 14.5 | 24.1 | 0.00 | 0.00 | 0.00 | 74 | 1009.5 |
| 20260505064705 | 10 | 338 | 17.7 | 22.5 | 0.00 | 0.00 | 0.00 | 74 | 1009.5 |
| 20260505064205 | 10 | 324 | 11.3 | 16.1 | 0.00 | 0.00 | 0.00 | 76 | 1009.6 |
| 20260505063706 | 10 | 315 | 14.5 | 22.5 | 0.00 | 0.00 | 0.00 | 75 | 1009.6 |
| 20260505063207 | 9 | 328 | 16.1 | 27.4 | 0.00 | 0.00 | 0.00 | 76 | 1009.5 |
| 20260505062704 | 9 | 326 | 17.7 | 25.7 | 0.00 | 0.00 | 0.00 | 77 | 1009.5 |
| 20260505062205 | 9 | 309 | 19.3 | 24.1 | 0.00 | 0.00 | 0.00 | 77 | 1009.5 |
| 20260505061705 | 9 | 322 | 19.3 | 27.4 | 0.00 | 0.00 | 0.00 | 77 | 1009.5 |
| 20260505061205 | 9 | 307 | 16.1 | 25.7 | 0.00 | 0.00 | 0.00 | 79 | 1009.5 |
| 20260505060705 | 9 | 322 | 12.9 | 25.7 | 0.00 | 0.00 | 0.00 | 80 | 1009.5 |
| 20260505060204 | 9 | 344 | 14.5 | 22.5 | 0.00 | 0.00 | 0.00 | 82 | 1009.4 |
| 20260505055706 | 8 | 317 | 11.3 | 16.1 | 0.00 | 0.00 | 0.00 | 84 | 1009.4 |
| 20260505055204 | 8 | 310 | 9.7 | 12.9 | 0.00 | 0.00 | 0.00 | 84 | 1009.4 |
| 20260505054705 | 8 | 305 | 8.0 | 11.3 | 0.00 | 0.00 | 0.00 | 83 | 1009.4 |
| 20260505053704 | 8 | 310 | 9.7 | 16.1 | 0.00 | 0.00 | 0.00 | 85 | 1009.4 |
| 20260505052206 | 7 | 291 | 11.3 | 14.5 | 0.00 | 0.00 | 0.00 | 87 | 1009.4 |
| 20260505041205 | 5 | 273 | 1.6 | 4.8 | 0.00 | 0.03 | 0.00 | 88 | 1009.3 |
| 20260505040206 | 5 | 267 | 1.6 | 8.0 | 0.00 | 0.03 | 0.00 | 88 | 1009.4 |
| 20260505035704 | 5 | 265 | 4.8 | 9.7 | 0.00 | 0.03 | 0.00 | 88 | 1009.5 |
| 20260505034205 | 5 | 256 | 0.0 | 8.0 | 0.00 | 0.03 | 0.00 | 87 | 1009.5 |
| 20260505033704 | 5 | 245 | 3.2 | 4.8 | 0.00 | 0.03 | 0.00 | 87 | 1009.5 |
| 20260505033204 | 5 | 238 | 1.6 | 3.2 | 0.00 | 0.03 | 0.00 | 87 | 1009.5 |
| 20260505032205 | 5 | 239 | 3.2 | 4.8 | 0.00 | 0.03 | 0.00 | 87 | 1009.5 |
| 20260505030705 | 5 | 239 | 3.2 | 8.0 | 0.00 | 0.03 | 0.00 | 87 | 1009.3 |
| 20260505025704 | 5 | 274 | 4.8 | 4.8 | 0.00 | 0.03 | 0.00 | 87 | 1009.4 |
| 20260505025205 | 5 | 272 | 3.2 | 4.8 | 0.00 | 0.03 | 0.00 | 87 | 1009.4 |
| 20260505024705 | 5 | 275 | 4.8 | 8.0 | 0.00 | 0.03 | 0.00 | 87 | 1009.4 |
| 20260505024204 | 5 | 292 | 4.8 | 8.0 | 0.00 | 0.03 | 0.00 | 87 | 1009.4 |
| 20260505023705 | 5 | 293 | 4.8 | 8.0 | 0.00 | 0.03 | 0.00 | 87 | 1009.5 |
| 20260505023205 | 5 | 263 | 4.8 | 8.0 | 0.00 | 0.03 | 0.00 | 87 | 1009.5 |
| 20260505022704 | 5 | 314 | 3.2 | 4.8 | 0.00 | 0.03 | 0.00 | 87 | 1009.4 |
| 20260505021705 | 5 | 314 | 4.8 | 8.0 | 0.00 | 0.03 | 0.00 | 87 | 1009.5 |
| 20260505020205 | 5 | 318 | 8.0 | 11.3 | 0.00 | 0.03 | 0.00 | 86 | 1009.6 |
| 20260505015204 | 5 | 296 | 8.0 | 9.7 | 0.00 | 0.03 | 0.00 | 86 | 1009.6 |
| 20260505014705 | 6 | 305 | 8.0 | 9.7 | 0.00 | 0.03 | 0.00 | 86 | 1009.6 |
| 20260505014204 | 6 | 303 | 8.0 | 9.7 | 0.00 | 0.03 | 0.00 | 86 | 1009.7 |
| 20260505013705 | 6 | 299 | 9.7 | 11.3 | 0.00 | 0.03 | 0.00 | 86 | 1009.7 |
| 20260505012706 | 6 | 289 | 8.0 | 9.7 | 0.00 | 0.03 | 0.00 | 86 | 1009.6 |
| 20260505011704 | 6 | 292 | 8.0 | 9.7 | 0.00 | 0.03 | 0.00 | 86 | 1009.6 |
| 20260505011205 | 6 | 289 | 4.8 | 8.0 | 0.00 | 0.03 | 0.00 | 86 | 1009.8 |
| 20260505010205 | 6 | 289 | 6.4 | 9.7 | 0.00 | 0.03 | 0.00 | 86 | 1009.8 |
| 20260505005204 | 6 | 289 | 9.7 | 12.9 | 0.00 | 0.03 | 0.00 | 86 | 1009.8 |
| 20260505004704 | 6 | 292 | 8.0 | 11.3 | 0.00 | 0.03 | 0.00 | 86 | 1009.7 |
| 20260505004204 | 6 | 303 | 9.7 | 11.3 | 0.00 | 0.03 | 0.00 | 86 | 1009.7 |
| 20260505003705 | 6 | 294 | 9.7 | 11.3 | 0.00 | 0.03 | 0.00 | 86 | 1009.7 |
| 20260505003204 | 6 | 289 | 8.0 | 11.3 | 0.00 | 0.03 | 0.00 | 86 | 1009.7 |
| 20260505001706 | 6 | 306 | 9.7 | 12.9 | 0.00 | 0.03 | 0.00 | 86 | 1009.9 |
| 20260505001206 | 6 | 293 | 8.0 | 11.3 | 0.00 | 0.03 | 0.00 | 86 | 1009.8 |
| 20260505000704 | 6 | 290 | 8.0 | 9.7 | 0.00 | 0.03 | 0.00 | 86 | 1009.8 |
| 20260505000204 | 6 | 291 | 4.8 | 9.7 | 0.00 | 0.03 | 0.00 | 86 | 1009.9 |
| 20260504235707 | 6 | 279 | 4.8 | 8.0 | 0.00 | 0.03 | 0.00 | 86 | 1009.9 |
| 20260504234705 | 6 | 288 | 4.8 | 8.0 | 0.00 | 0.03 | 0.00 | 85 | 1009.9 |
| 20260504232704 | 6 | 294 | 8.0 | 9.7 | 0.00 | 0.05 | 0.00 | 85 | 1009.8 |
| 20260504232206 | 6 | 290 | 6.4 | 9.7 | 0.00 | 0.05 | 0.00 | 85 | 1009.9 |
| 20260504231206 | 7 | 301 | 3.2 | 4.8 | 0.00 | 0.05 | 0.00 | 85 | 1010.0 |